Showing default

COSMOS 2611, 68759

Orbit data source: Space-Track

COSMOS 2611, 68759 is a payload satellite owned by VVKO VKS (CIS) in SSO that was launched on Thu, 16 Apr 2026 UTC via a SOYUZ-2-1B launch vehicle from the Plesetsk Missile And Space Complex (PKMTR). Payload-class satellites include a variety of spacecraft equipped with specific instruments for various scientific and technological missions. These include communications satellites like Starlink; space stations such as the ISS; scientific satellites like the Hubble; Earth observation satellites from companies like Planet Labs, Umbra, and HawkEye 360; GPS; miniature CubeSats for education and research; and military/defense satellites.

Loading next visibility...
Identifier
68759, 2026-083G
Orbit
SSO
Country
Flag of CISCIS
Related business
Manufacturer
Unknown (RU)
Mission
Operational spacecraft
Bus & Motor
UNK, Unknown motor
Mass
~500 kg wet, ~500 kg dry
Launch date (UTC)
2026-04-16 (1 month ago)
Launch vehicle
SOYUZ-2-1B
Launch site
Plesetsk Missile And Space Complex (PKMTR)
Object type
Payload
Rocket body
Debris
Shape & HBR
Unknown shape, 14.5 m
Radar Cross Section
RCS unknown

Expand to show TLE details & history
Last TLE update: 8 hours ago

TLE from 8 hours ago
0 COSMOS 2611
1 68759U 26083G   26138.71605816  .00001543  00000-0  10907-3 0  9991
2 68759  96.9566 275.9194 0012718 157.0412 203.1388 15.06104199  4751
Epoch: 2026-05-18T17:11Z
TLE epoch observation values (Epoch: 2026-05-18T17:11:07.425Z)
Latitude
0.00002°
Longitude
141.73813°
Altitude
559.306 km
Speed
7.577 km/s
True Right ascension
18h 23m 40s
True Declination
0° 00' 00"
Sunlit
Object was in full shadow at epoch
Visualization orbit readout
Latitude
Unknown
Longitude
Unknown
Altitude
Unknown
Speed
Unknown
Apparent Right ascension
Unknown
Apparent Declination
Unknown
Sunlit
N/A
Visualization observer readout
Local Sidereal Time
10:04:03
Azimuth
Unknown
Elevation
Unknown
Doppler factor
Unknown
Orbital elements
Apogee altitude
553.889 km
Perigee altitude
536.279 km
Semi-major axis
6,923.221 km
Eccentricity
0.00127
Inclination
96.9566°
RAAN
275.9194°
Arg. of periapsis
157.0412°
True anomaly
203.08161°
Mean anomaly
203.1388°
Eccentric anomaly
203.1102°
Mean motion
3.76774 °/min
Orbital period
95.55 mins
BSTAR
0.00010907
Loading maneuver chart data...
Computing Atmospheric mass density...
Loading historical data...
Loading historical data...
Loading historical data...
Loading historical data...
Loading historical data...
Loading historical data...
Loading historical data...

Documentation

Showing up to 5 results
|